Regional Weather Roundup
Issued by NWS Mt. Holly, NJ

Home | Current Version | Previous Version | Text Only | Print | Product List | Glossary On
Versions: 1 2 3 4 5 6 7 8 9 10 11 12 13 14 15 16 17 18 19 20 21 22 23 24 25 26 27
000
ASUS41 KPHI 172212
RWRPHI

REGIONAL WEATHER ROUNDUP
NATIONAL WEATHER SERVICE MOUNT HOLLY NJ
500 PM EST SUN DEC 17 2017

NOTE:  "FAIR" INDICATES FEW OR NO CLOUDS BELOW 12,000 FEET WITH NO
SIGNIFICANT WEATHER AND/OR OBSTRUCTIONS TO VISIBILITY.

 * = STATION DOES NOT REPORT PRECIPITATION (E.G. RAIN, SNOW, ETC.)
        OR FOG.

NJZ015>026-172300-
SOUTHERN NEW JERSEY

CITY           SKY/WX    TMP DP  RH WIND       PRES   REMARKS
POMONA         CLOUDY    41  36  82 CALM      30.22S
WILDWOOD*      CLOUDY    43  35  73 CALM      30.22F
MILLVILLE      CLOUDY    40  33  76 CALM      30.21F
WRIGHTSTOWN    CLOUDY    39  32  76 E5        30.19F
MOUNT HOLLY    CLOUDY    39  30  70 CALM      30.22S
TRENTON        CLOUDY    38  28  67 CALM      30.22S

$$
NJZ001>014-172300-
NORTHERN NEW JERSEY

CITY           SKY/WX    TMP DP  RH WIND       PRES   REMARKS
SUSSEX         PTCLDY    30  22  72 CALM      30.22R
ANDOVER*         N/A     31  25  78 CALM      30.21R
MORRISTOWN     MOCLDY    34  25  69 CALM      30.24R
NEWARK         CLOUDY    36  25  64 E3        30.24S
TETERBORO      PTCLDY    37  24  59 CALM      30.24R
CALDWELL       PTCLDY    35  24  64 E5        30.24R WCI  31
SOMERVILLE     CLOUDY    35  27  72 CALM      30.21S
ALLAIRE*       CLOUDY    37  31  78 NE3       30.23F
TOMS RIVER*    CLOUDY    37  32  82 CALM      30.23S

$$
PAZ043-044-047-054-055-060>062-066>071-172300-
EASTERN PENNSYLVANIA

CITY           SKY/WX    TMP DP  RH WIND       PRES   REMARKS
PHILADELPHIA   CLOUDY    42  29  59 NE5       30.22S
NORTH PHILA    CLOUDY    40  29  64 NE3       30.24S
BLUE BELL*     PTCLDY    36  28  75 CALM      30.23R
DOYLESTOWN     CLOUDY    36  26  67 CALM      30.21R
QUAKERTOWN*    PTCLDY    36  27  69 CALM      30.21R
PERKASIE*      FAIR      34  27  75 CALM      30.21S
POTTSTOWN      CLOUDY    35  27  72 CALM      30.22S
LANCASTER      PTCLDY    37  31  78 E3        30.19S
COATESVILLE    CLOUDY    37  28  70 CALM      30.20S
READING        CLOUDY    37  29  72 CALM      30.19S
ALLENTOWN      CLOUDY    35  25  66 NE6       30.21R WCI  30
MOUNT POCONO   PTCLDY    29  23  78 E3        30.12S
HAZLETON       PTCLDY    34  25  69 CALM      30.17R
LEHIGHTON      FAIR      34  28  80 N3        30.21R
WILKES BARRE   PTCLDY    31  24  75 CALM      30.17S

$$
DEZALL-MDZ008-012-015-019-020-172300-
DELAWARE AND EASTERN MARYLAND

CITY           SKY/WX    TMP DP  RH WIND       PRES   REMARKS
WILMINGTON     PTCLDY    42  30  62 E3        30.22S
DOVER          CLOUDY    39  39 100 CALM      30.20S
GEORGETOWN     CLOUDY    44  36  73 NE3       30.20F
EASTON         CLOUDY    46  32  57 CALM      30.24S
ABERDEEN       CLOUDY   N/A N/A N/A CALM      30.21F
PATUXENT       CLOUDY    45  39  79 SE6       30.18F
OCEAN CITY     CLOUDY    43  38  82 CALM      30.20F
WALLOPS ISLAND CLOUDY    45  39  79 S7        30.19F
CAMBRIDGE      PTCLDY    45  34  65 E3        30.19F
SALISBURY      CLOUDY    43  38  82 E3        30.19F

$$
PAZ001-021-NYZ056-072-MDZ011-DCZ001-172300-
OTHER NEARBY LOCATIONS

CITY           SKY/WX    TMP DP  RH WIND       PRES   REMARKS
HARRISBURG     CLOUDY    38  30  73 CALM      30.19R
STATE COLLEGE  MOCLDY    32  28  86 CALM      30.15R
WILLIAMSPORT   CLOUDY    37  27  67 E3        30.18R
BINGHAMTON     CLOUDY    23  15  71 CALM      30.14S
NEW YORK CITY  PTCLDY    35  26  69 NE3       30.26S
BALTIMORE      CLOUDY    42  32  67 NE3       30.19S
WASHINGTON DC  CLOUDY    47  30  51 S3        30.20R

$$




USA.gov is the U.S. government's official web portal to all federal, state and local government web resources and services.